Regional Weather Roundup
Issued by NWS Wakefield, VA

Home | Current Version | Previous Version | Graphics & Text | Print | Product List | Glossary On
Versions: 1 2 3 4 5 6 7 8 9 10 11 12 13 14 15 16 17 18 19 20 21 22 23 24 25 26 27 28 29 30 31 32 33 34 35 36 37 38 39 40 41 42 43 44 45 46 47 48 49 50
000
ASUS41 KAKQ 281010
RWRAKQ

REGIONAL WEATHER ROUNDUP
NATIONAL WEATHER SERVICE WAKEFIELD VA
500 AM EST WED JAN 28 2015

Note: "fair" indicates few or no clouds below 12,000 feet with no
significant weather and/or obstructions to visibility. * = Denotes
station may not report precipitation (e.g., rain,snow,etc.),
thunder or fog.

VAZ042-051-052>054-056-281100-
NORTHERN VIRGINIA

CITY           SKY/WX    TMP DP  RH WIND       PRES   REMARKS
WASH NATIONAL  CLEAR     25   9  50 NW14G24   30.11R WCI  13
DULLES         CLEAR     21   9  59 NW13G21   30.10R WCI   9
FORT BELVOIR   CLEAR     24  10  56 NW8       30.11R
QUANTICO       CLEAR     25  10  53 N9        30.12R
FREDERICKSBRG* CLEAR     26  14  58 NW6       30.10R
STAFFORD*      CLEAR     24  10  56 NW12      30.14R WCI  12
WARRENTON      CLEAR     25  15  66 NW10G18   30.08R WCI  15
CULPEPER*      CLEAR     25  10  54 N3        30.08R
MANASSAS*      CLEAR     23  14  68 N13       30.11R WCI  11
LEESBURG*      CLEAR     23  14  68 NW20      30.10R WCI   8
WINCHESTER     CLEAR     23   9  54 NW14G20   30.11R WCI  11
FRONT ROYAL*   FAIR      21  10  63 W5        30.10R
LURAY*         FAIR      23  18  80 NE3       30.11R
$$

VAZ048-049-060>072-079>083-281100-
CENTRAL AND SOUTH CENTRAL VIRGINIA

CITY           SKY/WX    TMP DP  RH WIND       PRES   REMARKS
RICHMOND       PTCLDY    28  11  48 N13       30.08R WCI  17
CHESTERFIELD*  FAIR      28   5  37 N8        30.09R
PETERSBURG*    CLEAR     28  18  66 N6        30.09R
HANOVER        CLEAR     26  10  50 VRB6      30.11R
TAPPAHANNOCK*  CLEAR     27  11  50 NW8       30.09R
QUINTON*       FAIR      27  12  54 NW7       30.09R
CHARLOTTSVILLE CLEAR     27  10  49 NW8       30.08R
GORDONSVILLE*  FAIR      21  17  84 CALM      30.08R
ORANGE*        CLEAR     23  18  80 CALM      30.09R
LOUISA*        CLEAR     21  16  79 CALM      30.07R
BUMPASS*       FAIR      26  12  54 N3        30.08R
FARMVILLE*     CLOUDY    28  15  58 NW3       30.07R
CREWE*         FAIR      27  15  61 NW6       30.08R
FORT PICKETT*  FAIR      26  17  66 N5        30.07R
CHASE CITY*    FAIR      28  18  67 CALM      30.08R
CLARKSVILLE*   FAIR      28  16  59 NW3       30.08R
SOUTH HILL*    CLEAR     26  16  66 CALM      30.13R
LAWRENCEVILLE* FAIR      27  18  68 CALM      30.07R
EMPORIA*       CLEAR     28  19  69 W5        30.10R
$$

VAZ088>098-281100-
SOUTHEAST VIRGINIA

CITY           SKY/WX    TMP DP  RH WIND       PRES   REMARKS
NORFOLK        CLEAR     30  17  58 N15G23    30.04R WCI  19
VIRGINIA BEACH CLEAR     31  18  58 N15       30.03R WCI  20
NORFOLK NAVAL  CLEAR     31  16  54 N13       30.07R WCI  21
WEST POINT*    CLEAR     29  14  52 NW6       30.10R
SALUDA*        FAIR      28  15  60 NW12G23   30.06R WCI  17
NEWPORT NEWS   CLEAR     31  15  52 N14G21    30.06R WCI  21
LANGLEY AFB    CLEAR     28  15  59 N10G18    30.06R WCI  19
FORT EUSTIS    CLEAR     29  18  63 VRB6      30.05R
WILLIAMSBURG*    N/A     28  18  64 N12G17    30.08R WCI  18
HR EXEC AP*    FAIR      28  16  59 N7        30.08R
FRANKLIN*      CLEAR     28  15  56 N7        30.08R
WAKEFIELD      PTCLDY    29  13  51 N7        30.07R
$$

VAZ020-022-025-037-045-281100-
WEST CENTRAL AND SOUTHWEST VIRGINIA

CITY           SKY/WX    TMP DP  RH WIND       PRES   REMARKS
STAUNTON*      CLEAR     19  13  78 CALM      30.12R
WAYNESBORO*    FAIR      19  12  73 CALM      30.08R
HOT SPRINGS VA PTCLDY    12   9  90 NW18      29.93R WCI  -6
LYNCHBURG      CLOUDY    25  12  58 VRB5      30.09R
DANVILLE       CLEAR     27  13  55 NW9       30.12R
SOUTH BOSTON*  FAIR      25  13  59 NW3       30.10R
MARTINSVILLE   CLEAR     26  15  62 N10       30.13R WCI  16
ROANOKE        FAIR      23  11  60 CALM      30.15R
BLACKSBURG     CLEAR     17  10  74 W7        30.12R
DUBLIN*        PTCLDY    21  15  76 NW5       30.11R
MARION*        FLURRIES  20  14  75 W10       30.13R WCI   9
HILLSVILLE*    CLEAR     18  13  79 NW12      30.05R WCI   6
RICHLANDS*     FLURRIES  17  11  77 NW5       30.12R
WISE*          CLOUDY    18  14  86 N3        30.14R
ABINGDON*      MOCLDY    21  14  75 NW5       30.16R
$$

MDZ021>025-VAZ099-100-281100-
SOUTHERN MARYLAND AND THE DELMARVA PENINSULA

CITY           SKY/WX    TMP DP  RH WIND       PRES   REMARKS
PATUXENT RIVER CLEAR     26  12  55 NW18      30.07R WCI  13
BAY BRIDGE APT   N/A     27  10  50 NW13G21   30.08R WCI  16
LEONARDTOWN    CLEAR     27  12  54 NW6       30.09R
DOVER          CLEAR     20   6  54 NW14      30.03R WCI   6
GEORGETOWN     CLEAR     22   8  55 NW7G17    30.03R
EASTON         CLEAR     26  10  52 N14       30.10R WCI  14
CAMBRIDGE      CLEAR     30  12  47 NW16G24   30.05R WCI  19
SALISBURY      CLEAR     25  11  55 NW17G26   30.03R WCI  12
OCEAN CITY     CLEAR     23  11  60 NW15G24   30.01R WCI  10
WALLOPS ISLAND CLEAR     25  12  58 N10G18    30.03R WCI  15
ACCOMACK*      CLEAR     30  16  55 N10G21    30.03R WCI  21
$$

NCZ012>017-030>032-281100-
NORTH CENTRAL AND EASTERN NORTH CAROLINA

CITY           SKY/WX    TMP DP  RH WIND       PRES   REMARKS
ROANOKE RAPIDS FAIR      30  19  64 NW5       30.08R
RALEIGH        MOCLDY    27  12  53 CALM      30.09R
ELIZABETH CITY CLEAR     30  20  66 N16       30.04R WCI  19
AHOSKIE*       CLEAR     29  19  64 N5        30.08R
EDENTON*       CLEAR     31  22  68 N10       30.05R WCI  22
CURRITUCK*     CLEAR     31  17  56 NW8       30.05R
KILL DEVIL HLS PTCLDY    32  23  69 N9G16     30.00R
MANTEO         MOCLDY    32  21  64 NW15      30.02R WCI  22
CAPE HATTERAS  MOCLDY    34  25  69 N9        30.01R
TARBORO*       CLOUDY    32  20  63 NW3       30.09R
GOLDSBORO      CLEAR     28  22  76 NW3       30.07R
WASHINGTON     CLOUDY    32  21  65 NW7       30.06R
GREENVILLE     CLOUDY    32  21  64 N5        30.08R
NEW BERN       CLEAR     31  22  69 NW7       30.06R
WILMINGTON     PTCLDY    30  17  58 N8        30.07R
$$

VAZ048-281100-
ELSEWHERE

CITY           SKY/WX    TMP DP  RH WIND       PRES   REMARKS
HARRISBURG PA  PTCLDY    15   3  59 NW9       30.08R
BALTIMORE      PTCLDY    20   6  55 NW10      30.08R WCI   9
ANNAPOLIS      FAIR      25  12  58 NW13      30.08R WCI  14
ANDREWS AFB    CLEAR     22   9  57 NW15G22   30.08R WCI   9
PHILADELPHIA   PTCLDY    20   0  41 NW10      30.02R WCI   9
HENDERSON NC   FAIR      26  13  57 NW7       30.08R
GREENSBORO     CLEAR     24  13  62 CALM      30.08R
ROCKY MOUNT    CLOUDY    30  17  58 NW7       30.08R
$$

VAZ100-281100-
MARINE

STATION/POSITION TIME  TEMP    WIND        PRES    WAVE   SWELL
                       AIR SEA DIR/SP/G            HT/PER HT/PER
                 (UTC) (F)     (DEG/KT/KT) (MB)    (FT/S) (FT/S)
BRANDYWINE LGT   1000   23 37  330/ 17/ 24 1016.1R
CAPE MAY NJ      1000   24 36   30/  2/ 10 1015.6R
LEWES DE         1000   23 35  320/ 24/ 28 1016.3R
15NM E FENWICK I 1000   27 41              1014.2R   8/ 6
OCEAN-CITY-INLET 1000   25 38  350/ 18/ 23 1015.6R
WACHAPREAGUE VA  1000   28 39  330/  8/ 16 1016.6R
THOMAS POINT MD  1000   24 36  320/ 16/ 18 1019.6R
GOOSES REEF MD   1000   27     VRB 19/ 23  1016.9R
COVE POINT MD    1000   25     350/ 26/ 30 1017.7R
SOLOMONS ISLAND  1000      38                N/A
BISHOPS HEAD MD  1000   26 32  340/ 13/ 17 1017.1R
PINEY POINT MD   1000          350/ 20/ 23   N/A
POTOMAC MD       1000   28     350/ 16/ 23 1016.9R
CAMBRIDGE MD     1000   27 36  330/ 18/ 23 1017.5R
LEWISETTA VA     1000   28 36  340/ 15/ 23 1018.2R
RAPPAHANNOCK LGT 1000          340/ 27/ 32 1017.3R
STINGRAY PT      1000   30     340/ 17/ 21 1017.6R
YORK RVR RNG VA  1000   30     350/ 19/ 23 1016.9R
YORKTOWN VA      1000   29 40  330/ 14/ 16 1017.7R
JAMESTOWN VA     1000   28     360/ 10/ 17   N/A
DOMINION TERM VA 1000   30     350/ 13/ 19 1017.7R
KIPTOPEKE VA     1000      44  360/ 17/ 23   N/A
CHES BAY BRIDGE  1000   31 41  330/ 22/ 25 1016.9R
CAPE HENRY VA    1000   31     340/ 26/ 29 1015.5R
CHESAPEAKE LGHT  0900   32     340/ 28/ 32 1015.7R
WILLOUBY STN VA  1000   29     340/ 15/ 17 1017.9R
S CRANEY ISL VA  1000          350/ 13/ 20 1017.5R
CAPE HENRY BUOY  1000      44                N/A     7/ 5   2/13
1ST LANDING BUOY 1000   32     340/ 23/ 27 1016.4R
CAPE CHARLES BUO 1000      42                N/A     5/13   3/13
OFFSHORE WE BUOY 1000      45                N/A     8/ 6   5/13
64NM E OF VA BCH 1000   36 51  340/ 23/ 29 1014.0R  12/13  10/13
DUCK PIER NC     1000   32 42  330/ 19/ 22 1015.2R
44100 DUCK FRF   1000      45                N/A     9/13   5/13
44056 DUCK FRF   1000      43                N/A     7/13   5/13
OREGON INLET NC  1000   33 42  330/ 12/ 18 1016.0R
HATTERAS NC      1000   36 47  360/ 19/ 21 1016.1R


USA.gov is the U.S. government's official web portal to all federal, state and local government web resources and services.